星链-3084 (STARLINK-3084 )

导读

STARLINK-3084是美国SpaceX公司星链(Starlink)星座的低轨通信组网卫星,于2021年9月14日发射入轨。它是星链全球卫星互联网建设的组成单元,运行在近地轨道,为全球提供高速低延迟宽带通信服务,尤其补充偏远地区网络覆盖。卫星采用标准化设计,具备空间碎片自动规避能力,保障星座运行安全稳定。

基本信息
目录编号:
49136
目录名称:
STARLINK-3084
国际标识:
2021-082G
轨道中心:
EARTH
卫星名称:
星链-3084
卫星全名:
星链-3084 (STARLINK-3084 )
卫星状态:
已陨落 最后检测时间 2025-10-07
发射日期:
2021-09-14 UTC
国别 :
美国 (US)
星等 :
--
该卫星已列入 空间交会检测服务 Space Conjunction Data Service (SCDS) ,当前飞行风险评估等级: 无高风险
轨道信息
数据来源 国际轨道数据
星历时间: 2025-10-07T16:57:11+0800
轨道信息已过期339天
半长轴: 6541.243km
偏心率: 0.0011049
轨道倾角: 69.978°
近地点辐角 225.383°
升交点赤经 285.295°
平近点角 134.650°
近地点: 155.88km
远地点: 170.336km
周期: 87.751分钟
每日圈数: 16.410144
详细信息
固有亮度:
5
最大亮度:
2.5
卫星平台:
Starlink v1.5
覆盖范围:
全球
运营商:
太空探索技术公司
运营商所在国:
美国
制造商(研发单位):
太空探索技术公司
制造商所在国:
美国
使用方式:
暂无
卫星简介
星链(Starlink)计划是由太空探索技术公司(SpaceX)提出的一个巨型低轨卫星互联网星座项目,计划在2019年至2024年间在太空搭建由约1.2万颗卫星组成的“星链”网络,其中1584颗将部署在地球上空550千米处的近地轨道,并从2020年开始工作。该卫星仍在工作。
与全量物体交会距离演化趋势
与全量物体交会风险概率演化趋势